Location: Newark
(45.5000°N, 11.4167°E)
Time: 03:29:10
(UTC+00:00)

A-11 Canister half - Pass Details

Date: 26 August 2019
Orbit: 1514 x 1686 km, 47.2° (Epoch: 13 October)

Event Time Altitude Azimuth Distance (km) Brightness Sun altitude
Rises 18:35:08 0° 267° (W) 4,693 12.9 -6.0°
Reaches altitude 10° 18:38:09 10° 268° (W) 3,728 12.3 -6.5°
Maximum altitude 18:47:39 81° 357° (N) 1,608 9.2 -8.1°
Drops below altitude 10° 18:57:33 10° 85° (E) 3,866 10.6 -9.6°
Enters shadow 18:58:59 - 86° (E) 4,317 10.8 -9.9°
Sets 19:00:44 0° 87° (E) 4,874 - -10.1°
